Home   Weather   French Lick   Past weeks
Flag for USA

Past Weather in French Lick, Indiana, USA — Yesterday and Last 2 Weeks

Now
80 °F

Low clouds.


Feels Like: 86 °F
Forecast: 92 / 77 °F
Wind: 9 mph from Southwest

Location: Huntingburg Airport

Current Time: Jul 19, 2019 at 10:42:33 am

Latest Report: Jul 19, 2019 at 9:56 am


Visibility: 8 mi

Pressure: 30.02 "Hg

Humidity: 90%

Dew Point: 77 °F

Location of French LickLocation

Past Weather in French Lick — Graph

°F

French Lick Temperature Yesterday

Maximum temperature yesterday: 89 °F (at 3:56 pm)
Minimum temperature yesterday: 72 °F (at 6:22 am)
Average temperature yesterday: 80 °F

High & Low Weather Summary for the Past Weeks

 TemperatureHumidityPressure
High92 °F (Jul 10, 2:56 pm)100% (Jul 10, 3:56 am)30.17 "Hg (Jul 10, 3:56 am)
Low61 °F (Jul 13, 7:07 am)43% (Jul 13, 6:56 pm)29.85 "Hg (Jul 11, 6:56 pm)
Average78 °F82%29.99 "Hg
* Reported Jul 9 1:56 pm — Jul 19 8:56 am, French Lick. Weather by CustomWeather, © 2019

Note: Actual official high and low records may vary slightly from our data, if they occured in-between our weather recording intervals... More about our weather records

Advertising

French Lick Weather History for the Previous 24 Hours

Scroll right to see more
 ConditionsComfort  
Time TempWeatherWind HumidityBarometerVisibility
8:56 am
Fri, Jul 19
79 °FLow clouds.7 mph94%30.01 "Hg7 mi
7:56 am76 °FFog.7 mph100%29.98 "Hg6 mi
6:56 am75 °FFog.6 mph96%29.97 "Hg6 mi
6:12 am75 °FPassing clouds.6 mph94%29.97 "Hg7 mi
5:56 am75 °FClear.6 mph96%29.95 "Hg7 mi
4:56 am75 °FClear.6 mph100%29.94 "Hg7 mi
3:56 am76 °FClear.7 mph100%29.95 "Hg9 mi
2:56 am77 °FClear.8 mph96%29.94 "Hg10 mi
1:56 am78 °FClear.7 mph93%29.96 "Hg10 mi
12:56 am79 °FClear.9 mph94%29.95 "Hg10 mi
11:56 pm
Thu, Jul 18
79 °FClear.8 mph94%29.95 "Hg10 mi
10:56 pm79 °FClear.7 mph94%29.95 "Hg10 mi
9:56 pm80 °FClear.8 mph90%29.93 "Hg10 mi
8:56 pm83 °FSunny.10 mph82%29.92 "Hg10 mi
7:56 pm85 °FSunny.15 mph80%29.91 "Hg10 mi
6:56 pm87 °FSunny.15 mph75%29.91 "Hg10 mi
5:56 pm88 °FPassing clouds.10 mph75%29.93 "Hg10 mi
4:56 pm89 °FLight rain. Sunny.8 mph70%29.93 "Hg10 mi
3:56 pm89 °FSunny.7 mph70%29.94 "Hg10 mi
2:56 pm88 °FSunny.6 mph70%29.96 "Hg10 mi
1:56 pm87 °FSunny.8 mph72%29.98 "Hg10 mi
12:56 pm84 °FSunny.7 mph74%29.99 "Hg10 mi
11:56 am83 °FSunny.8 mph72%29.98 "Hg10 mi
10:56 am82 °FSunny.7 mph77%29.98 "Hg10 mi
Weather by CustomWeather, © 2019

See weather overview